Home   Weather   Oradea   Past weeks

Flag for Romania Past Weather in Oradea, Romania — Yesterday and Last 2 Weeks

Now
77 °F

Passing clouds.


Feels Like: 78 °F
Forecast: 56 / 79 °F
Wind: 8 mph from South

Location: Oradea Airport

Current Time: Oct 1, 2016 at 4:50:21 PM

Latest Report: Oct 1, 2016 at 4:00 PM


Visibility: N/A

Pressure: 30.01 "Hg

Humidity: 36%

Dew Point: 48 °F

Location of OradeaLocation

Past Weather in Oradea — Graph

°F

Oradea Temperature Yesterday

Maximum temperature yesterday: 79 °F (at 3:00 PM)
Minimum temperature yesterday: 52 °F (at 6:30 AM)
Average temperature yesterday: 65 °F

High & Low Weather Summary for the Past Weeks

 TemperatureHumidityPressure
High86 °F (Sep 16, 3:30 PM)100% (Sep 19, 2:00 PM)30.39 "Hg (Sep 19, 2:00 PM)
Low43 °F (Sep 21, 5:30 AM)29% (Sep 28, 5:30 PM)29.68 "Hg (Sep 19, 9:30 AM)
Average60 °F69%30.08 "Hg
* Reported Sep 16 3:00 PM — Oct 1 3:30 PM, Oradea, Weather by CustomWeather, © 2016

Note: Actual official high and low records may vary slightly from our data, if they occured in-between our weather recording intervals... More about our weather records

Advertising

Oradea Weather History for the Previous 24 Hours

Scroll right to see more
 ConditionsComfort  
Time TempWeatherWind HumidityBarometerVisibility
3:30 PM
Sat, Oct 1
77 °FPassing clouds.10 mph34%30.01 "HgN/A
3:00 PM75 °FPassing clouds.9 mph39%30.01 "HgN/A
2:30 PM75 °FPassing clouds.9 mph41%30.04 "HgN/A
2:00 PM73 °FPassing clouds.9 mph44%30.04 "HgN/A
1:30 PM73 °FSunny.9 mph47%30.04 "Hg10 mi
1:00 PM72 °FSunny.10 mph50%30.07 "Hg10 mi
12:30 PM72 °FSunny.12 mph47%30.07 "Hg10 mi
12:00 PM72 °FSunny.12 mph47%30.07 "Hg10 mi
11:30 AM68 °FSunny.9 mph56%30.07 "Hg10 mi
11:00 AM72 °FSunny.10 mph47%30.07 "Hg10 mi
10:30 AM66 °FPassing clouds.5 mph68%30.04 "HgN/A
10:00 AM61 °FSunny.5 mph77%30.04 "Hg10 mi
9:30 AM59 °FPassing clouds.5 mph82%30.04 "HgN/A
9:00 AM55 °FSunny.6 mph88%30.04 "Hg10 mi
8:30 AM52 °FSunny.6 mph94%30.04 "Hg10 mi
8:00 AM52 °FSunny.5 mph94%30.04 "Hg10 mi
7:30 AM54 °FClear.6 mph88%30.04 "Hg10 mi
7:00 AM52 °FClear.7 mph94%30.04 "Hg10 mi
6:30 AM54 °FClear.7 mph88%30.04 "Hg10 mi
6:00 AM54 °FClear.7 mph88%30.04 "Hg10 mi
5:30 AM54 °FClear.7 mph88%30.04 "Hg10 mi
5:00 AM54 °FClear.8 mph94%30.04 "Hg10 mi
4:00 AM55 °FCool.8 mph88%30.04 "HgN/A
3:00 AM55 °FCool.7 mph88%30.04 "HgN/A
2:00 AM55 °FCool.7 mph88%30.07 "HgN/A
1:00 AM57 °FClear.7 mph88%30.07 "Hg10 mi
12:00 AM57 °FClear.7 mph82%30.07 "Hg10 mi
11:00 PM
Fri, Sep 30
59 °FClear.8 mph82%30.07 "Hg10 mi
10:30 PM59 °FClear.8 mph82%30.07 "Hg10 mi
10:00 PM61 °FClear.7 mph77%30.07 "Hg10 mi
9:30 PM61 °FClear.7 mph77%30.07 "Hg10 mi
9:00 PM63 °FClear.6 mph73%30.07 "Hg10 mi
8:30 PM64 °FClear.6 mph68%30.07 "Hg10 mi
8:00 PM64 °FClear.5 mph68%30.07 "Hg10 mi
7:30 PM66 °FClear.3 mph60%30.07 "Hg10 mi
7:00 PM72 °FSunny.5 mph47%30.07 "Hg10 mi
6:30 PM75 °FSunny.5 mph39%30.07 "Hg10 mi
6:00 PM77 °FPassing clouds.6 mph34%30.07 "HgN/A
5:30 PM77 °FPassing clouds.8 mph34%30.07 "HgN/A
5:00 PM79 °FPassing clouds.6 mph34%30.07 "HgN/A
4:30 PM79 °FPleasantly warm.7 mph32%30.09 "HgN/A
4:00 PM79 °FPassing clouds.7 mph34%30.09 "HgN/A
Weather by CustomWeather, © 2016

See weather overviewHow to use our weather pages